Regional Weather Roundup
Issued by NWS Charleston, SC

Current Version | Previous Version | Graphics & Text | Print | Product List | Glossary On
Versions: 1 2 3 4 5 6 7 8 9 10 11 12 13 14 15 16 17 18 19 20 21 22 23 24 25 26 27 28 29 30 31 32 33 34 35 36 37 38 39 40 41 42 43 44 45 46 47 48 49 50
094
ASUS42 KCHS 250445
RWRCHS

REGIONAL WEATHER ROUNDUP
NATIONAL WEATHER SERVICE CHARLESTON SC
1200 AM EDT MON SEP 25 2017

NOTE: "FAIR" INDICATES FEW OR NO CLOUDS BELOW 12,000 FEET WITH NO
SIGNIFICANT WEATHER AND/OR OBSTRUCTIONS TO VISIBILITY.

NOT ALL STATIONS ARE QUALITY CONTROLLED. USE DATA WITH CAUTION...
ESPECIALLY DEWPOINT OBSERVATIONS.

SCZ027-030-031-034>040-042>050-250500-
...SOUTHEAST SOUTH CAROLINA...

CITY           SKY/WX    TMP DP  RH WIND       PRES   REMARKS
N CHARLESTON   CLOUDY    73  69  87 N6        29.93F
WATERFRONT PRK   N/A     77  72  84 N7        29.77F
JOHNS ISLAND   FAIR      75  72  88 N6        29.91F
PINOPOLIS        N/A     79  72  78 NE10      29.87F
MONCKS CORNER  FAIR      73  68  83 NE6       29.93F
SUMMERVILLE    FAIR      70  70 100 CALM      29.94F
BEAUFORT MCAS  CLOUDY    76  72  87 N3        29.94S
BEAUFORT ARPT  FAIR      73  70  88 N5        29.92F
HILTON HEAD IS PTCLDY    77  73  88 N3        29.93F
WALTERBORO     MOCLDY    70  68  94 N5        29.95F
ALLENDALE      NOT AVBL

...SOUTHERN MIDLANDS AND PEE DEE...

CITY           SKY/WX    TMP DP  RH WIND       PRES   REMARKS
GEORGETOWN     FAIR      73  70  88 N6        29.93F
KINGSTREE      FAIR      68  64  88 CALM      29.94F
ORANGEBURG     PTCLDY    73  66  78 NE5       29.96F
BARNWELL       FAIR      73  70  88 CALM      29.97S
AIKEN          FAIR      70  64  83 N3        30.01F
MANNING        FAIR      72  66  83 MISG      29.95F
COLUMBIA       PTCLDY    77  66  68 N5        29.96F
SUMTER         CLOUDY    71  66  85 NE6       29.94F
FLORENCE       MOCLDY    71  67  87 N7        29.96F
MYRTLE BEACH   CLOUDY    75  67  76 NE10      29.94F
N MYRTLE BEACH CLOUDY    75  67  76 N8        29.93F

$$

GAZ063-065-086>088-099>101-113>116-118-119-134>141-150-250500-
...SOUTHEAST GEORGIA...

CITY           SKY/WX    TMP DP  RH WIND       PRES   REMARKS
SAVANNAH ARPT  MOCLDY    73  70  90 CALM      29.95S
HUNTER AAF     CLOUDY    73  69  88 CALM      29.91F
FORT STEWART   CLOUDY    72  68  89 CALM      29.92F
STATESBORO     CLOUDY    71  68  89 CALM      29.95F
SYLVANIA       MOCLDY    71  70  98 CALM      29.96F
CLAXTON        FAIR      71  69  96 CALM      29.95S

...CSRA...CENTRAL AND FAR SOUTHEAST GEORGIA...

CITY           SKY/WX    TMP DP  RH WIND       PRES   REMARKS
THOMSON        MOCLDY    68  66  93 CALM      30.03F
AUGUSTA-BUSH   CLOUDY    72  69  90 CALM      29.97S
AUGUSTA-DANIEL CLOUDY    76  68  76 N7        29.99F
SWAINSBORO     FAIR      73  68  83 CALM      29.97F
VIDALIA        PTCLDY    72  68  88 CALM      29.96F
EASTMAN        FAIR      69  69 100 CALM      29.99F
HAZLEHURST     FAIR      72  68  87 CALM      29.95F
ALMA           CLEAR     70  67  90 CALM      29.95S
WAYCROSS       CLEAR     71  68  90 CALM      29.94F
JESUP          NOT AVBL
BAXLEY         FAIR      70  70 100 CALM      29.95F
BRUNSWICK      PTCLDY    72  68  88 CALM      29.93F
SAINT SIMONS   PTCLDY    78  72  81 CALM      29.93F

$$

SCZ027-028-034-036>038-045-046-048>050-GAZ119-141-250500-
...LAKE AND SUPPLEMENTAL COASTAL OBSERVATIONS...

STATION/POSITION TIME  TEMP    WIND        PRES    WAVE   SWELL
                       AIR SEA DIR/SP/G            HT/PER HT/PER/DIR
                 (UTC) (F)     (DEG/KT/KT) (MB)    (FT/S) (FT/S/D)
WINYAH BAY       0345   75      10/  7     1013.0F
LAKE MURRAY      0420   74      CALM  /  5 1014.2F
ACE BASIN NERRS  0345   72        CALM     1013.0F
FORT PULASKI     0400   76 81  330/  5/  6 1013.9
SAPELO ISLAND    0400   76        CALM     1013.0

$$

ANZ835-935-AMZ111-154-330-350-352-354-370-450-454-472-250500-
...C-MAN AND BUOY OBSERVATIONS...

STATION/POSITION TIME  TEMP    WIND        PRES    WAVE   SWELL
                       AIR SEA DIR/SP/G            HT/PER HT/PER/DIR
                 (UTC) (F)     (DEG/KT/KT) (MB)    (FT/S) (FT/S/D)
BUOY 41004       0410   79 81   30/ 17/ 21 1011.3
BUOY 41008       0350   80 80   40/ 14/ 16 1012.6F   6/15   5/130/15
FOLLY BEACH CMAN 0400   78      10/ 10/ 11 1013.6F
CAPERS NEARSHORE 0308   76 80   30/ 12/ 16 1013.0F
FRIPP NEARSHORE  0408   79      10/ 10/ 14 1018.6F


STATION/POSITION TIME  TEMP    WIND        PRES    WAVE   SWELL
                       AIR SEA DIR/SP/G            HT/PER HT/PER/DIR
                 (UTC) (F)     (DEG/KT/KT) (MB)    (FT/S) (FT/S/D)
5E ST. MARYS GA  0400      81                N/A     7/14   3/110/14
FRYING PAN BUOY  0410   79 82   30/ 19/ 23 1011.8
BUOY 41025       0350   76 81   40/ 23/ 27 1012.3F  11/15  10/150/15
CAPE LOOKOUT NC  0400   75      30/ 22/ 24 1012.9F
BUOY 41002       0350   78 80   20/ 29/ 37 1001.8F  21/ 9  10/140/15
BUOY 41010       0410           10/ 16/ 19 1010.1
ST AUGUSTINE FL  0400   79 82   20/ 15/ 17 1012.9F


$$




USA.gov is the U.S. government's official web portal to all federal, state and local government web resources and services.